Location: Prague
(50.0830°N, 14.4670°E)
Time: 23:59:19
(UTC+01:00)

Oscar 11 - Visible Passes

Search period start: 29 November 2021 00:00
Search period end: 09 December 2021 00:00
Orbit: 614 x 623 km, 97.6° (Epoch: 29 November)

Date Brightness Start Highest point End Pass type
(mag) Time Alt. Az. Time Alt. Az. Time Alt. Az.
29 Nov 9.7 04:32:54 10° NE 04:36:10 20° E 04:39:24 10° SE visible
29 Nov 7.2 06:08:20 10° N 06:12:34 50° WNW 06:16:45 10° SW visible
29 Nov 8.7 17:07:12 10° SSW 17:11:15 38° W 17:15:21 10° NNW visible
30 Nov 9.1 04:49:22 10° NNE 04:53:11 29° E 04:56:57 10° SSE visible
30 Nov 7.6 06:25:22 10° N 06:29:20 35° WNW 06:33:17 10° SW visible
30 Nov 9.4 17:24:32 10° SSW 17:28:14 27° W 17:31:57 10° NW visible
01 Dec 8.4 05:06:00 10° NNE 05:10:08 41° E 05:14:14 10° SSE visible
01 Dec 8.0 06:42:29 10° N 06:46:04 25° WNW 06:49:37 10° WSW visible
01 Dec 10.0 17:42:09 10° SW 17:45:15 19° W 17:48:22 10° NW visible
02 Dec 7.6 05:22:43 10° NNE 05:27:03 61° E 05:31:20 10° S visible
02 Dec 8.4 06:59:44 10° NNW 07:02:46 19° WNW 07:05:47 10° WSW visible
02 Dec 10.3 18:00:13 10° WSW 18:02:18 13° W 18:04:24 10° WNW visible
03 Dec 10.4 04:05:53 10° ENE 04:07:08 11° E 04:08:23 10° ESE visible
03 Dec 7.0 05:39:32 10° NNE 05:43:56 88° ESE 05:48:16 10° SSW visible
03 Dec 7.4 16:38:08 10° S 16:42:29 72° WSW 16:46:51 10° NNW visible
04 Dec 10.0 04:21:29 10° NE 04:24:13 16° E 04:26:55 10° SE visible
04 Dec 7.0 05:56:27 10° N 06:00:46 64° WNW 06:05:02 10° SSW visible
04 Dec 8.2 16:55:10 10° S 16:59:22 49° W 17:03:37 10° NNW visible
05 Dec 9.4 04:37:46 10° NE 04:41:14 23° E 04:44:41 10° SE visible
05 Dec 7.3 06:13:25 10° N 06:17:34 44° WNW 06:21:40 10° SW visible
05 Dec 9.0 17:12:21 10° SSW 17:16:19 34° W 17:20:18 10° NNW visible
06 Dec 8.8 04:54:18 10° NNE 04:58:14 32° E 05:02:07 10° SSE visible
06 Dec 7.8 06:30:28 10° N 06:34:18 31° WNW 06:38:08 10° SW visible
06 Dec 9.6 17:29:46 10° SSW 17:33:17 24° W 17:36:50 10° NW visible
07 Dec 8.1 05:10:57 10° NNE 05:15:10 47° E 05:19:20 10° S visible
07 Dec 8.2 06:47:37 10° N 06:51:01 23° WNW 06:54:25 10° WSW visible
07 Dec 10.1 17:47:30 10° SW 17:50:19 17° W 17:53:09 10° NW visible
08 Dec 7.3 05:27:43 10° NNE 05:32:04 69° ESE 05:36:22 10° S visible
08 Dec 8.5 07:04:55 10° NNW 07:07:42 17° WNW 07:10:28 10° W visible
08 Dec 10.4 18:05:52 10° WSW 18:07:23 12° W 18:08:54 10° WNW visible
